Location: Castelbiague
(43.0361°N, 0.9246°E)
Time: 16:22:31
(UTC+00:00)

Cosmos 1626 - Pass Details

Date: 24 October 2021
Orbit: 487 x 492 km, 82.5° (Epoch: 30 November)

Event Time Altitude Azimuth Distance (km) Brightness Sun altitude
Exits shadow 03:40:55 10° 137° (SE) 1,715 5.2 -29.8°
Reaches altitude 10° 03:41:01 10° 136° (SE) 1,684 5.1 -29.7°
Maximum altitude 03:43:43 20° 88° (E) 1,208 4.8 -29.3°
Drops below altitude 10° 03:46:26 10° 41° (NE) 1,696 5.4 -28.8°
Sets 03:48:57 0° 24° (NNE) 2,584 6.2 -28.3°
